When you browse on this site, cookies collect data to enhance your experience and personalize the content and advertising you see.
Visit our Privacy Policy to learn more. By continuing to use the site, you agree to this use of cookies and data.
  • In Lithuania
  • List of Countries
  • For 7 days
  • Water Temperature
  • Weather Map
  • Weather Widgets
  • user-avatar
    Login

    Hourly Weather Pisek

    Today, 22 September, Sunday

    Time Temperature Precipitation Wind Pressure Humidity
    00:00 +8°C° 0 mm 2 mps 729 mmHg 72%
    01:00 +8°C° 0 mm 2 mps 728 mmHg 73%
    02:00 +8°C° 0 mm 2 mps 728 mmHg 74%
    03:00 +7°C° 0 mm 2 mps 728 mmHg 76%
    04:00 +7°C° 0 mm 2 mps 727 mmHg 77%
    05:00 +7°C° 0 mm 2 mps 727 mmHg 76%
    06:00 +7°C° 0 mm 2 mps 727 mmHg 76%
    07:00 +8°C° 0 mm 2 mps 727 mmHg 75%
    08:00 +10°C° 0 mm 2 mps 727 mmHg 69%
    09:00 +12°C° 0 mm 3 mps 727 mmHg 62%
    10:00 +14°C° 0 mm 3 mps 727 mmHg 56%
    11:00 +16°C° 0 mm 3 mps 727 mmHg 54%
    12:00 +17°C° 0 mm 3 mps 726 mmHg 52%
    13:00 +19°C° 0 mm 3 mps 726 mmHg 49%
    14:00 +19°C° 0 mm 3 mps 726 mmHg 51%
    15:00 +19°C° 0 mm 3 mps 725 mmHg 52%
    16:00 +19°C° 0 mm 3 mps 725 mmHg 53%
    17:00 +17°C° 0 mm 2 mps 725 mmHg 59%
    18:00 +15°C° 0 mm 2 mps 725 mmHg 64%
    19:00 +13°C° 0 mm 1 mps 724 mmHg 70%
    20:00 +12°C° 0 mm 1 mps 724 mmHg 72%
    21:00 +11°C° 0 mm 1 mps 725 mmHg 73%
    22:00 +11°C° 0 mm 1 mps 725 mmHg 75%
    23:00 +10°C° 0 mm 1 mps 724 mmHg 77%

    Tomorrow, 23 September, Monday

    Time Temperature Precipitation Wind Pressure Humidity
    00:00 +10°C° 0 mm 1 mps 724 mmHg 80%
    01:00 +8°C° 0 mm 0 mps 724 mmHg 82%
    02:00 +8°C° 0 mm 0 mps 724 mmHg 83%
    03:00 +8°C° 0 mm 0 mps 724 mmHg 83%
    04:00 +8°C° 0 mm 0 mps 724 mmHg 84%
    05:00 +9°C° 0 mm 0 mps 724 mmHg 82%
    06:00 +9°C° 0 mm 0 mps 725 mmHg 81%
    07:00 +10°C° 0 mm 0 mps 725 mmHg 79%
    08:00 +12°C° 0 mm 0 mps 725 mmHg 73%
    09:00 +15°C° 0 mm 1 mps 725 mmHg 68%
    10:00 +18°C° 0 mm 1 mps 726 mmHg 63%
    11:00 +19°C° 0 mm 1 mps 726 mmHg 63%
    12:00 +19°C° 0 mm 2 mps 726 mmHg 62%
    13:00 +19°C° 0 mm 3 mps 726 mmHg 62%
    14:00 +19°C° 0.1 mm 3 mps 726 mmHg 68%
    15:00 +18°C° 0.1 mm 3 mps 726 mmHg 75%
    16:00 +17°C° 0.1 mm 3 mps 726 mmHg 81%
    17:00 +16°C° 0.2 mm 3 mps 726 mmHg 85%
    18:00 +14°C° 0.2 mm 3 mps 727 mmHg 89%
    19:00 +13°C° 0.2 mm 3 mps 727 mmHg 93%
    20:00 +13°C° 0.5 mm 3 mps 727 mmHg 94%
    21:00 +14°C° 0.5 mm 2 mps 727 mmHg 95%
    22:00 +13°C° 0.5 mm 2 mps 727 mmHg 95%
    23:00 +13°C° 0.4 mm 2 mps 727 mmHg 96%

    Day after tomorrow, 24 September, Tuesday

    Time Temperature Precipitation Wind Pressure Humidity
    00:00 +13°C° 0.4 mm 2 mps 727 mmHg 96%
    01:00 +13°C° 0.4 mm 2 mps 727 mmHg 96%
    02:00 +13°C° 0.5 mm 2 mps 727 mmHg 95%
    03:00 +13°C° 0.5 mm 2 mps 727 mmHg 95%
    04:00 +13°C° 0.5 mm 2 mps 727 mmHg 95%
    05:00 +13°C° 0.2 mm 2 mps 726 mmHg 95%
    06:00 +13°C° 0.2 mm 1 mps 726 mmHg 95%
    07:00 +13°C° 0.2 mm 1 mps 726 mmHg 95%
    08:00 +14°C° 0 mm 1 mps 726 mmHg 92%
    09:00 +14°C° 0 mm 1 mps 726 mmHg 90%
    10:00 +15°C° 0 mm 1 mps 726 mmHg 87%
    11:00 +16°C° 0 mm 1 mps 725 mmHg 83%
    12:00 +16°C° 0 mm 1 mps 725 mmHg 79%
    13:00 +18°C° 0 mm 1 mps 724 mmHg 75%
    14:00 +18°C° 0 mm 1 mps 724 mmHg 75%
    15:00 +19°C° 0 mm 1 mps 724 mmHg 74%
    16:00 +19°C° 0 mm 1 mps 723 mmHg 73%
    17:00 +16°C° 0 mm 1 mps 723 mmHg 79%
    18:00 +15°C° 0 mm 1 mps 723 mmHg 85%
    19:00 +13°C° 0 mm 1 mps 723 mmHg 91%
    20:00 +13°C° 0 mm 1 mps 723 mmHg 90%
    21:00 +13°C° 0 mm 1 mps 723 mmHg 90%
    22:00 +13°C° 0 mm 1 mps 724 mmHg 90%
    23:00 +13°C° 0 mm 1 mps 723 mmHg 89%

    25 September, Wednesday

    Time Temperature Precipitation Wind Pressure Humidity
    00:00 +13°C° 0 mm 1 mps 723 mmHg 89%
    01:00 +13°C° 0 mm 1 mps 723 mmHg 88%
    02:00 +13°C° 0.1 mm 1 mps 723 mmHg 90%
    03:00 +13°C° 0.1 mm 1 mps 723 mmHg 91%
    04:00 +13°C° 0.1 mm 2 mps 722 mmHg 93%
    05:00 +13°C° 0 mm 2 mps 722 mmHg 92%
    06:00 +13°C° 0 mm 2 mps 722 mmHg 91%
    07:00 +13°C° 0 mm 3 mps 722 mmHg 90%
    08:00 +13°C° 0.1 mm 3 mps 722 mmHg 87%
    09:00 +13°C° 0.1 mm 3 mps 723 mmHg 84%
    10:00 +14°C° 0.1 mm 4 mps 723 mmHg 82%
    11:00 +14°C° 0.1 mm 4 mps 723 mmHg 77%
    12:00 +15°C° 0.1 mm 5 mps 723 mmHg 73%
    13:00 +15°C° 0.1 mm 6 mps 724 mmHg 68%
    14:00 +15°C° 0 mm 6 mps 724 mmHg 68%
    15:00 +15°C° 0 mm 5 mps 723 mmHg 67%
    16:00 +15°C° 0 mm 5 mps 723 mmHg 67%
    17:00 +14°C° 0 mm 4 mps 724 mmHg 73%
    18:00 +12°C° 0 mm 4 mps 724 mmHg 78%
    19:00 +11°C° 0 mm 3 mps 724 mmHg 84%
    20:00 +11°C° 0 mm 3 mps 724 mmHg 84%
    21:00 +11°C° 0 mm 3 mps 725 mmHg 84%
    22:00 +10°C° 0 mm 3 mps 725 mmHg 84%
    23:00 +10°C° 0 mm 3 mps 725 mmHg 85%

    26 September, Thursday

    Time Temperature Precipitation Wind Pressure Humidity
    00:00 +10°C° 0 mm 3 mps 725 mmHg 85%
    01:00 +10°C° 0 mm 3 mps 725 mmHg 86%
    02:00 +10°C° 0 mm 3 mps 725 mmHg 86%
    03:00 +10°C° 0 mm 3 mps 725 mmHg 87%
    04:00 +10°C° 0 mm 2 mps 726 mmHg 88%
    05:00 +12°C° 0 mm 2 mps 726 mmHg 87%
    06:00 +11°C° 0 mm 3 mps 726 mmHg 85%
    07:00 +12°C° 0 mm 3 mps 726 mmHg 84%
    08:00 +13°C° 0 mm 3 mps 726 mmHg 77%
    09:00 +15°C° 0 mm 4 mps 727 mmHg 70%
    10:00 +16°C° 0 mm 5 mps 727 mmHg 63%
    11:00 +17°C° 0 mm 5 mps 727 mmHg 62%
    12:00 +17°C° 0 mm 5 mps 726 mmHg 60%
    13:00 +19°C° 0 mm 4 mps 726 mmHg 58%
    14:00 +19°C° 0 mm 4 mps 726 mmHg 59%
    15:00 +19°C° 0 mm 4 mps 726 mmHg 60%
    16:00 +19°C° 0 mm 3 mps 726 mmHg 61%
    17:00 +17°C° 0 mm 2 mps 726 mmHg 66%
    18:00 +16°C° 0 mm 2 mps 726 mmHg 72%
    19:00 +15°C° 0 mm 1 mps 726 mmHg 77%
    20:00 +15°C° 0 mm 1 mps 726 mmHg 77%
    21:00 +14°C° 0 mm 1 mps 726 mmHg 78%
    22:00 +14°C° 0 mm 1 mps 727 mmHg 78%
    23:00 +14°C° 0 mm 1 mps 727 mmHg 77%

    27 September, Friday

    Time Temperature Precipitation Wind Pressure Humidity
    00:00 +15°C° 0 mm 1 mps 727 mmHg 77%
    01:00 +15°C° 0 mm 1 mps 727 mmHg 77%
    02:00 +15°C° 0 mm 1 mps 726 mmHg 77%
    03:00 +15°C° 0 mm 1 mps 726 mmHg 77%
    04:00 +15°C° 0 mm 1 mps 726 mmHg 77%
    05:00 +15°C° 0 mm 1 mps 726 mmHg 78%
    06:00 +15°C° 0 mm 1 mps 726 mmHg 78%
    07:00 +15°C° 0 mm 1 mps 726 mmHg 79%
    08:00 +16°C° 0 mm 1 mps 726 mmHg 73%
    09:00 +19°C° 0 mm 1 mps 726 mmHg 67%
    10:00 +20°C° 0 mm 2 mps 726 mmHg 61%
    11:00 +21°C° 0 mm 2 mps 725 mmHg 58%
    12:00 +23°C° 0 mm 2 mps 725 mmHg 54%
    13:00 +24°C° 0 mm 3 mps 725 mmHg 51%
    14:00 +22°C° 0 mm 3 mps 724 mmHg 55%
    15:00 +22°C° 0 mm 3 mps 724 mmHg 58%
    16:00 +21°C° 0 mm 3 mps 723 mmHg 62%
    17:00 +20°C° 0 mm 3 mps 723 mmHg 66%
    18:00 +18°C° 0 mm 2 mps 723 mmHg 70%
    19:00 +17°C° 0 mm 2 mps 722 mmHg 74%
    20:00 +16°C° 0 mm 2 mps 722 mmHg 76%
    21:00 +16°C° 0 mm 2 mps 722 mmHg 78%
    22:00 +15°C° 0 mm 2 mps 722 mmHg 79%
    23:00 +15°C° 0 mm 2 mps 722 mmHg 80%
    Show more